Volver al catálogo

CZ-6A DEB

ActivoSSO
NORAD 54962·DEBRIS·🇨🇳 China

Lanzado Nov 11, 2022 desde Taiyuan Satellite Launch Center

Loading…

Próximos Pases (próximas 24 horas)

TLE

ActualizadoSource: Space-Track

Época: Sep 14, 2026, 21:45 UTC

1 54962U 22151TB  26257.90678536  .00000835  00000-0  18751-3 0  9994
2 54962  98.5793 324.5102 0126247 344.6447  15.0932 14.54655010203185

Sigue CZ-6A DEB en tiempo real con AllMySat

Download on the App Store